AV279 Weather Reports


time (UTC)temp
F
wind
direction
speed
knots
gust
knots
rain 1hr
in
rain 24hr
in
rain mn
in
humidity
%
barometer
mb
20260831033818 61 248 7.0 11.3 0.06 0.34 0.26 93 1007.1
20260831032818 61 225 7.0 12.2 0.06 0.34 0.26 93 1007.3
20260831031818 61 225 5.2 8.7 0.06 0.35 0.26 93 1007.2
20260831030818 61 248 5.2 9.6 0.06 0.35 0.26 94 1007.2
20260831025819 61 248 5.2 8.7 0.06 0.35 0.26 94 1007.5
20260831024829 61 248 2.6 4.3 0.06 0.35 0.25 94 1007.6
20260831023818 61 225 5.2 9.6 0.01 0.30 0.20 94 1007.4
20260831023015 61 225 6.1 8.7 0.00 0.29 0.20 94 1007.6
20260831022550 61 225 7.0 10.4 0.00 0.29 0.20 94 1007.5
20260831021551 61 203 4.3 10.4 0.00 0.29 0.20 94 1007.7
20260831020519 61 248 3.5 6.1 0.00 0.29 0.20 94 1007.6
20260831015518 61 203 3.5 6.1 0.02 0.29 0.20 94 1007.7
20260831014529 61 225 3.5 4.3 0.02 0.29 0.20 94 1007.9
20260831013519 61 225 4.3 7.0 0.02 0.29 0.20 94 1008.0
20260831012550 61 225 1.7 3.5 0.08 0.29 0.20 93 1008.2
20260831011519 61 203 2.6 5.2 0.18 0.29 0.20 94 1008.1
20260831010518 61 225 3.5 7.0 0.20 0.29 0.20 94 1008.5
20260831005518 61 203 1.7 3.5 0.18 0.28 0.18 93 1008.4
20260831004518 61 225 2.6 4.3 0.18 0.28 0.18 93 1008.3
20260831003519 62 225 3.5 6.1 0.18 0.28 0.18 93 1008.3
20260831002518 62 270 1.7 2.6 0.12 0.21 0.12 92 1008.6
20260831001538 62 225 4.3 7.0 0.02 0.11 0.02 91 1008.1
20260831000529 63 203 6.1 7.8 0.00 0.09 0.00 91 1008.4
20260830235518 63 225 4.3 7.0 0.00 0.09 0.09 91 1008.2
20260830234519 63 248 4.3 7.0 0.00 0.10 0.09 91 1008.2
20260830233714 63 225 6.1 9.6 0.00 0.10 0.09 91 1008.3
20260830233419 63 203 5.2 8.7 0.00 0.10 0.09 91 1008.2
20260830232613 63 203 7.0 9.6 0.00 0.10 0.09 91 1008.2
20260830232219 63 203 7.0 11.3 0.00 0.10 0.09 91 1008.3
20260830231218 63 203 6.1 9.6 0.00 0.10 0.09 91 1008.5
20260830230219 63 203 4.3 6.1 0.00 0.10 0.09 91 1008.5
20260830225412 63 180 3.5 6.1 0.00 0.10 0.09 91 1008.4
20260830224851 63 203 2.6 3.5 0.00 0.10 0.09 91 1008.5
20260830224012 63 248 3.5 4.3 0.00 0.10 0.09 91 1008.7
20260830223319 63 225 4.3 5.2 0.00 0.10 0.09 91 1008.7
20260830222319 63 203 2.6 2.6 0.00 0.10 0.09 91 1008.7
20260830221319 63 225 1.7 3.5 0.00 0.10 0.09 91 1008.7
20260830220351 63 225 3.5 7.0 0.00 0.10 0.09 91 1008.8
20260830215318 63 203 2.6 4.3 0.00 0.10 0.09 91 1008.7
20260830214340 63 225 3.5 7.0 0.00 0.10 0.09 91 1008.5
20260830213318 63 203 2.6 3.5 0.00 0.10 0.09 91 1008.6
20260830212318 63 203 3.5 6.1 0.00 0.10 0.09 92 1008.5
20260830211318 63 203 3.5 5.2 0.00 0.10 0.09 92 1008.5
20260830210349 63 225 1.7 3.5 0.00 0.10 0.09 91 1008.5
20260830205319 63 225 3.5 4.3 0.00 0.10 0.09 91 1008.5
20260830204533 63 180 3.5 5.2 0.00 0.10 0.09 91 1008.7
20260830203429 63 248 5.2 9.6 0.00 0.10 0.09 91 1008.8
20260830202419 63 225 4.3 7.8 0.00 0.10 0.09 91 1009.0
20260830201439 63 225 3.5 4.3 0.00 0.10 0.09 92 1009.1
20260830200429 63 225 2.6 4.3 0.01 0.10 0.09 92 1009.3
20260830195439 63 225 3.5 5.2 0.01 0.10 0.09 92 1009.3
20260830194439 63 225 3.5 5.2 0.02 0.10 0.09 92 1009.1
20260830193429 63 180 2.6 5.2 0.03 0.10 0.09 92 1009.1
20260830192418 63 180 2.6 4.3 0.03 0.10 0.09 92 1009.0
20260830191429 64 203 3.5 7.0 0.03 0.10 0.09 91 1008.9
20260830190418 64 203 3.5 7.0 0.02 0.09 0.09 91 1009.1
20260830185431 65 180 5.2 8.7 0.02 0.09 0.09 90 1009.2
20260830184420 65 248 5.2 7.8 0.02 0.09 0.08 89 1009.2
20260830183440 66 180 3.5 5.2 0.00 0.07 0.06 88 1009.3
20260830182449 66 180 1.7 3.5 0.00 0.07 0.06 88 1009.2
20260830181420 66 225 1.7 2.6 0.00 0.07 0.06 88 1009.2
20260830180418 66 203 1.7 2.6 0.00 0.07 0.06 87 1009.2
20260830175451 66 0.0 0.9 0.00 0.07 0.06 87 1009.4
20260830174420 66 225 5.2 7.8 0.00 0.07 0.06 88 1009.7
20260830173431 66 180 1.7 3.5 0.00 0.07 0.06 90 1009.6
20260830172418 66 203 1.7 2.6 0.00 0.07 0.06 90 1009.7
20260830171451 66 225 3.5 5.2 0.00 0.07 0.06 90 1009.8
20260830170420 65 203 1.7 2.6 0.00 0.12 0.06 90 1009.8
20260830165420 65 225 2.6 5.2 0.00 0.24 0.06 90 1009.9
20260830164420 65 203 1.7 2.6 0.03 0.31 0.06 90 1010.1
20260830163420 65 225 3.5 5.2 0.05 0.39 0.06 90 1010.1
20260830162440 65 203 2.6 4.3 0.05 0.41 0.06 89 1010.1
20260830161639 66 203 3.5 5.2 0.05 0.41 0.06 89 1010.2
20260830160431 66 225 2.6 4.3 0.05 0.41 0.06 88 1010.3
20260830155638 67 225 1.7 3.5 0.05 0.41 0.06 86 1010.3
20260830154631 68 248 1.7 3.5 0.02 0.39 0.04 83 1010.6
20260830153641 70 248 2.6 6.1 0.00 0.36 0.02 79 1010.3
20260830152701 71 248 1.7 3.5 0.00 0.36 0.02 74 1010.3
20260830151631 72 203 2.6 4.3 0.00 0.36 0.02 72 1010.1
20260830150652 72 225 2.6 3.5 0.00 0.36 0.02 72 1010.2
20260830145641 72 225 1.7 7.0 0.00 0.36 0.02 71 1010.3
20260830144620 72 225 3.5 7.8 0.00 0.36 0.02 70 1010.4
20260830143630 72 248 2.6 4.3 0.00 0.36 0.02 70 1010.5
20260830142630 72 270 1.7 3.5 0.00 0.37 0.02 71 1010.4
20260830141701 72 203 5.2 9.6 0.00 0.37 0.02 69 1010.6
20260830140620 72 248 5.2 9.6 0.00 0.37 0.02 69 1010.7
20260830135619 72 225 4.3 7.0 0.00 0.37 0.02 69 1010.8
20260830134630 72 225 6.1 9.6 0.00 0.38 0.02 69 1010.8
20260830133630 73 270 2.6 5.2 0.00 0.39 0.02 69 1010.9
20260830132619 73 248 7.8 13.0 0.00 0.39 0.02 67 1010.9
20260830131630 73 180 5.2 8.7 0.00 0.39 0.02 68 1011.1
20260830130651 73 248 3.5 6.1 0.00 0.39 0.02 66 1011.0
20260830125619 75 225 6.1 8.7 0.00 0.39 0.02 63 1011.1
20260830124619 75 203 7.0 11.3 0.00 0.39 0.02 63 1011.2
20260830123701 75 248 3.5 7.8 0.00 0.39 0.02 63 1011.1
20260830122619 75 180 2.6 4.3 0.00 0.39 0.02 64 1011.0
20260830121620 75 293 2.6 9.6 0.00 0.39 0.02 64 1011.2
20260830120620 75 270 1.7 2.6 0.00 0.39 0.02 67 1011.1
20260830115619 73 225 2.6 5.2 0.00 0.39 0.02 67 1011.3
20260830114619 73 270 2.6 3.5 0.00 0.40 0.02 67 1011.3
20260830113640 73 248 3.5 6.1 0.00 0.41 0.02 69 1011.3
20260830112700 73 248 3.5 6.1 0.00 0.41 0.02 70 1011.3
20260830111641 73 270 3.5 8.7 0.00 0.42 0.02 70 1011.2
20260830110700 73 248 2.6 3.5 0.00 0.42 0.02 72 1011.2
20260830105630 73 270 3.5 5.2 0.00 0.43 0.02 75 1011.3
20260830104619 72 270 2.6 5.2 0.00 0.43 0.02 75 1011.2
20260830103619 71 270 4.3 7.0 0.00 0.43 0.02 74 1011.3
20260830102619 71 248 2.6 6.1 0.00 0.43 0.02 75 1011.3
20260830101619 71 293 1.7 2.6 0.00 0.43 0.02 79 1011.2
20260830100719 70 225 4.3 6.1 0.00 0.43 0.02 81 1011.1
20260830095619 69 225 2.6 4.3 0.00 0.44 0.02 84 1011.2
20260830094619 67 248 3.5 7.0 0.00 0.44 0.02 85 1011.2
20260830093619 67 248 1.7 3.5 0.00 0.44 0.02 85 1011.1
20260830092620 68 225 5.2 7.0 0.00 0.44 0.02 85 1011.0
20260830091630 68 270 3.5 6.1 0.00 0.44 0.02 85 1011.1
20260830090630 68 248 4.3 8.7 0.00 0.44 0.02 84 1010.9
20260830085815 69 225 5.2 7.0 0.00 0.44 0.02 86 1010.9
20260830084819 67 225 4.3 7.8 0.00 0.44 0.02 88 1010.9
20260830083850 66 293 1.7 2.6 0.00 0.44 0.02 88 1010.9
20260830082902 67 248 2.6 3.5 0.00 0.44 0.02 88 1010.7
20260830081830 67 248 2.6 3.5 0.00 0.44 0.02 87 1010.7
20260830080900 67 270 2.6 3.5 0.00 0.44 0.02 87 1010.5
20260830075859 67 225 3.5 11.3 0.00 0.44 0.02 88 1010.3
20260830074819 67 248 3.5 8.7 0.00 0.44 0.02 88 1010.3
20260830073819 66 248 3.5 6.1 0.00 0.44 0.02 89 1010.2
20260830072839 66 225 6.1 13.9 0.00 0.44 0.02 90 1010.1
20260830071839 65 248 3.5 7.0 0.00 0.44 0.02 90 1010.0
20260830070819 65 270 1.7 2.6 0.00 0.44 0.02 90 1009.7
20260830065819 65 270 2.6 5.2 0.00 0.44 0.02 90 1009.7
20260830064819 65 248 2.6 3.5 0.00 0.44 0.02 90 1009.4
20260830063839 65 225 2.6 4.3 0.00 0.44 0.02 90 1009.4
20260830062840 65 248 1.7 3.5 0.00 0.44 0.02 90 1009.3
20260830061839 64 270 1.7 3.5 0.00 0.44 0.02 91 1009.1
20260830060840 64 248 0.9 2.6 0.00 0.44 0.02 91 1009.0
20260830055819 64 248 2.6 4.3 0.00 0.44 0.02 91 1009.0
20260830054818 64 225 2.6 7.0 0.00 0.44 0.02 90 1008.9
20260830053819 64 270 3.5 4.3 0.00 0.44 0.02 90 1008.9
20260830052819 64 270 2.6 3.5 0.00 0.44 0.02 90 1008.8
20260830051819 64 270 3.5 6.1 0.00 0.44 0.02 90 1008.8
20260830050818 64 225 3.5 5.2 0.00 0.44 0.02 90 1008.7
20260830045829 64 248 2.6 4.3 0.00 0.44 0.02 90 1008.5
20260830044819 64 225 5.2 12.2 0.00 0.44 0.02 90 1008.4
20260830043819 64 248 2.6 6.1 0.00 0.44 0.02 90 1008.3
20260830042830 64 270 2.6 5.2 0.00 0.44 0.02 90 1008.2
20260830041818 64 270 4.3 7.0 0.01 0.44 0.02 91 1008.0
20260830040838 64 248 3.5 5.2 0.01 0.44 0.02 91 1008.0
20260830035819 64 270 3.5 5.2 0.02 0.44 0.02 91 1008.0
20260830035037 64 248 4.3 8.7 0.02 0.44 0.02 92 1007.8
20260830034529 64 248 4.3 7.0 0.02 0.44 0.02 92 1007.8